User: anonymous   Login
Location: Unspecified
(0.0000°N, 0.0000°E)
Time: 03:40:00
(UTC+00:00)
Language:

OAO 1 - Orbit

View from above orbital plane
View from above orbital plane
View from above satellite
View from above satellite

Ground track
Ground track

The orbit data is extracted from the following two-line orbital elements,

1 02142U 66031A   18230.15517930 -.00000010  00000-0  30793-5 0  9999
2 02142  35.0459 110.2779 0007494 209.9960 150.0299 14.33880335740727
Epoch (UTC): 18 August 2018 03:43:27
Eccentricity: 0.0007494
inclination: 35.0459°
perigee height: 773 km
apogee height: 784 km
right ascension of ascending node: 110.2779°
argument of perigee: 209.9960°
revolutions per day: 14.33880335
mean anomaly at epoch: 150.0299°
orbit number at epoch: 74072

The dashed part of the orbit path shows where the satellite is in the earth's shadow,  

DLR